The Villages, FL

6:19 PM EDT on July 21, 2017 (GMT -0400)
The Villages

Weather History for KVVG - June, 2013

Change the Weather History Date:

Thursday, June 20, 2013

  Actual Average (KLEE) Record (KLEE)
Temperature  
Mean Temperature 82 °F -  
Max Temperature 93 °F 91 °F 97 °F (1969)
Min Temperature 71 °F 71 °F 62 °F (1965)
Cooling Degree Days 17    
Growing Degree Days 32 (Base 50)    
Moisture  
Dew Point 72 °F    
Average Humidity 79    
Maximum Humidity 100    
Minimum Humidity 44    
Precipitation  
Precipitation 0.27 in - - ()
Sea Level Pressure  
Sea Level Pressure 30.07 in    
Wind  
Wind Speed 1 mph (ESE)    
Max Wind Speed 18 mph    
Max Gust Speed 25 mph    
Visibility 10 miles    
Events Rain    
Averages and records for this station are not official NWS values.
T = Trace of Precipitation, MM = Missing Value Source: NWS Daily Summary

Daily Weather History Graph

Daily Weather History Graph

Search for Another Location

Airport or City:

Trip Planner

Search our weather history database for the weather conditions in past years. The results will help you decide how hot, cold, wet, or windy it might be!

Date:

Astronomy

Jun. 20, 2013 Rise Set
Actual Time 6:29 AM EDT 8:28 PM EDT
Civil Twilight 6:02 AM EDT 8:55 PM EDT
Nautical Twilight 5:29 AM EDT 9:28 PM EDT
Astronomical Twilight 4:54 AM EDT 10:03 PM EDT
Moon 5:37 PM EDT (6/20) 3:44 AM EDT (6/20)
Length of Visible Light 14h 53m
Length of Day
13h 59m
Waxing Gibbous, 89% of the Moon is Illuminated
Jun 20
Waxing Gibbous
Jun 23
Full
Jun 30
Last Quarter
Jul 8
New
Jul 15
First Quarter

Hourly Weather History & Observations

Time (EDT) Temp. Heat Index Dew Point Humidity Pressure Visibility Wind Dir Wind Speed Gust Speed Precip Events Conditions
12:15 AM 77.0 °F - 71.6 °F 83% 30.06 in 10.0 mi Calm Calm - N/A   Unknown
12:35 AM 75.2 °F - 71.6 °F 89% 30.06 in 10.0 mi Calm Calm - N/A   Unknown
12:55 AM 75.2 °F - 71.6 °F 89% 30.06 in 10.0 mi Calm Calm - N/A   Unknown
1:15 AM 75.2 °F - 71.6 °F 89% 30.05 in 10.0 mi Calm Calm - N/A   Unknown
1:35 AM 73.4 °F - 71.6 °F 94% 30.05 in 10.0 mi Calm Calm - N/A   Unknown
1:55 AM 73.4 °F - 71.6 °F 94% 30.04 in 10.0 mi Calm Calm - N/A   Unknown
2:15 AM 75.2 °F - 71.6 °F 89% 30.04 in 10.0 mi Calm Calm - N/A   Unknown
2:35 AM 73.4 °F - 71.6 °F 94% 30.04 in 10.0 mi Calm Calm - N/A   Unknown
2:55 AM 73.4 °F - 71.6 °F 94% 30.04 in 10.0 mi Calm Calm - N/A   Unknown
3:15 AM 73.4 °F - 71.6 °F 94% 30.03 in 10.0 mi Calm Calm - N/A   Unknown
3:35 AM 73.4 °F - 71.6 °F 94% 30.03 in 10.0 mi Calm Calm - N/A   Unknown
3:55 AM 73.4 °F - 71.6 °F 94% 30.02 in 10.0 mi Calm Calm - N/A   Unknown
4:15 AM 73.4 °F - 71.6 °F 94% 30.02 in 10.0 mi Calm Calm - N/A   Unknown
4:35 AM 73.4 °F - 71.6 °F 94% 30.02 in 10.0 mi Calm Calm - N/A   Unknown
4:55 AM 73.4 °F - 71.6 °F 94% 30.03 in 10.0 mi Calm Calm - N/A   Unknown
5:15 AM 73.4 °F - 71.6 °F 94% 30.03 in 10.0 mi Calm Calm - N/A   Unknown
5:35 AM 73.4 °F - 71.6 °F 94% 30.03 in 10.0 mi Calm Calm - N/A   Unknown
5:55 AM 73.4 °F - 71.6 °F 94% 30.04 in 10.0 mi Calm Calm - N/A   Unknown
6:15 AM 73.4 °F - 71.6 °F 94% 30.05 in 5.0 mi Calm Calm - N/A   Mist
6:35 AM 73.4 °F - 71.6 °F 94% 30.06 in 10.0 mi Calm Calm - N/A   Unknown
6:55 AM 71.6 °F - 71.6 °F 100% 30.06 in 4.0 mi Calm Calm - N/A   Mist
7:15 AM 73.4 °F - 73.4 °F 100% 30.07 in 10.0 mi Calm Calm - N/A   Unknown
7:35 AM 75.2 °F - 73.4 °F 94% 30.07 in 10.0 mi Calm Calm - N/A   Unknown
7:55 AM 77.0 °F - 73.4 °F 89% 30.08 in 10.0 mi Calm Calm - N/A   Unknown
8:15 AM 78.8 °F - 73.4 °F 83% 30.08 in 10.0 mi Calm Calm - N/A   Unknown
8:35 AM 80.6 °F 85.4 °F 73.4 °F 79% 30.08 in 10.0 mi Calm Calm - N/A   Unknown
8:55 AM 80.6 °F 86.2 °F 75.2 °F 84% 30.09 in 10.0 mi Calm Calm - N/A   Unknown
9:15 AM 82.4 °F 88.2 °F 73.4 °F 74% 30.10 in 10.0 mi Calm Calm - N/A   Unknown
9:35 AM 84.2 °F 90.9 °F 73.4 °F 70% 30.10 in 10.0 mi Calm Calm - N/A   Unknown
9:55 AM 84.2 °F 90.9 °F 73.4 °F 70% 30.10 in 10.0 mi Calm Calm - N/A   Unknown
10:15 AM 86.0 °F 91.8 °F 71.6 °F 62% 30.10 in 10.0 mi WSW 5.8 mph - N/A   Unknown
10:35 AM 86.0 °F 91.8 °F 71.6 °F 62% 30.09 in 10.0 mi Calm Calm - N/A   Unknown
10:55 AM 86.0 °F 90.4 °F 69.8 °F 58% 30.10 in 10.0 mi Calm Calm - N/A   Unknown
11:15 AM 87.8 °F 93.8 °F 71.6 °F 58% 30.10 in 10.0 mi South 3.5 mph - N/A   Unknown
11:35 AM 87.8 °F 93.8 °F 71.6 °F 58% 30.10 in 10.0 mi Calm Calm - N/A   Unknown
11:55 AM 89.6 °F 94.7 °F 69.8 °F 52% 30.09 in 10.0 mi Calm Calm - N/A   Unknown
12:15 PM 89.6 °F 94.7 °F 69.8 °F 52% 30.09 in 10.0 mi Calm Calm - N/A   Unknown
12:35 PM 87.8 °F 92.6 °F 69.8 °F 55% 30.09 in 10.0 mi Calm Calm - N/A   Unknown
12:55 PM 89.6 °F 94.7 °F 69.8 °F 52% 30.08 in 10.0 mi SSE 5.8 mph - N/A   Unknown
1:15 PM 89.6 °F 94.7 °F 69.8 °F 52% 30.08 in 10.0 mi SSW 5.8 mph - N/A   Unknown
1:35 PM 91.4 °F 96.8 °F 69.8 °F 49% 30.07 in 10.0 mi Calm Calm - N/A   Unknown
1:55 PM 91.4 °F 96.8 °F 69.8 °F 49% 30.06 in 10.0 mi ESE 3.5 mph - N/A   Unknown
2:15 PM 91.4 °F 96.8 °F 69.8 °F 49% 30.06 in 10.0 mi WNW 6.9 mph - N/A   Unknown
2:35 PM 91.4 °F 96.8 °F 69.8 °F 49% 30.06 in 10.0 mi West 4.6 mph - N/A   Unknown
2:55 PM 91.4 °F 96.8 °F 69.8 °F 49% 30.04 in 10.0 mi West 6.9 mph - N/A   Unknown
3:15 PM 91.4 °F 96.8 °F 69.8 °F 49% 30.03 in 10.0 mi SW 3.5 mph - N/A   Unknown
3:35 PM 91.4 °F 95.4 °F 68.0 °F 46% 30.03 in 10.0 mi WNW 5.8 mph - N/A   Unknown
3:55 PM 93.2 °F 97.7 °F 68.0 °F 44% 30.02 in 10.0 mi Calm Calm - N/A   Unknown
4:15 PM 91.4 °F 98.4 °F 71.6 °F 52% 30.02 in 10.0 mi NNE 9.2 mph - N/A   Unknown
4:35 PM 89.6 °F 96.2 °F 71.6 °F 55% 30.02 in 10.0 mi ENE 10.4 mph - N/A   Unknown
4:55 PM 87.8 °F 92.6 °F 69.8 °F 55% 30.02 in 10.0 mi ENE 9.2 mph 16.1 mph N/A   Unknown
5:15 PM 86.0 °F 91.8 °F 71.6 °F 62% 30.03 in 10.0 mi ENE 8.1 mph - N/A   Unknown
5:35 PM 87.8 °F 95.6 °F 73.4 °F 62% 30.04 in 10.0 mi ESE 11.5 mph - N/A   Unknown
5:55 PM 80.6 °F 83.9 °F 69.8 °F 70% 30.05 in 10.0 mi ESE 17.3 mph 25.3 mph N/A   Unknown
6:15 PM 80.6 °F 84.6 °F 71.6 °F 74% 30.06 in 10.0 mi ESE 18.4 mph 24.2 mph N/A   Unknown
6:35 PM 78.8 °F - 71.6 °F 78% 30.06 in 10.0 mi ESE 12.7 mph - N/A   Unknown
6:55 PM 75.2 °F - 71.6 °F 89% 30.09 in 1.5 mi East 6.9 mph - 0.22 in Rain Heavy Rain
7:15 PM 75.2 °F - 73.4 °F 94% 30.11 in 9.0 mi East 9.2 mph - 0.02 in   Unknown
7:35 PM 73.4 °F - 71.6 °F 94% 30.10 in 10.0 mi Calm Calm - 0.04 in   Unknown
7:55 PM 73.4 °F - 71.6 °F 94% 30.10 in 10.0 mi Calm Calm - 0.05 in   Unknown
8:15 PM 75.2 °F - 71.6 °F 89% 30.10 in 10.0 mi Calm Calm - N/A   Unknown
8:35 PM 75.2 °F - 71.6 °F 89% 30.10 in 10.0 mi ENE 5.8 mph - N/A   Unknown
8:55 PM 73.4 °F - 73.4 °F 100% 30.09 in 10.0 mi Calm Calm - N/A   Unknown
9:15 PM 75.2 °F - 73.4 °F 94% 30.08 in 10.0 mi Calm Calm - N/A   Unknown
9:35 PM 73.4 °F - 73.4 °F 100% 30.07 in 10.0 mi SE 4.6 mph - N/A   Unknown
9:55 PM 73.4 °F - 73.4 °F 100% 30.07 in 10.0 mi Calm Calm - N/A   Unknown
10:15 PM 75.2 °F - 73.4 °F 94% 30.08 in 10.0 mi Calm Calm - N/A   Unknown
10:35 PM 73.4 °F - 71.6 °F 94% 30.08 in 10.0 mi Calm Calm - N/A   Unknown
10:55 PM 73.4 °F - 73.4 °F 100% 30.10 in 10.0 mi Calm Calm - N/A   Unknown
11:15 PM 73.4 °F - 73.4 °F 100% 30.10 in 10.0 mi Calm Calm - N/A   Unknown
11:35 PM 73.4 °F - 73.4 °F 100% 30.10 in 10.0 mi Calm Calm - N/A   Unknown
11:55 PM 73.4 °F - 71.6 °F 94% 30.11 in 10.0 mi Calm Calm - N/A   Unknown